Time,TemperatureF,DewpointF,PressureIn,WindDirection,WindDirectionDegrees,WindSpeedMPH,WindSpeedGustMPH,Humidity,HourlyPrecipIn,Conditions,Clouds,dailyrainin,SoftwareType,DateUTC
2013-05-29 00:02:00,68.0,67.0,29.72,SSW,208,4.0,-999.0,96,-99.99,,,-99.99,,2013-05-29 04:02:00,
2013-05-29 00:13:00,68.0,67.0,29.72,SSW,202,2.0,-999.0,96,-99.99,,,-99.99,,2013-05-29 04:13:00,
2013-05-29 00:23:00,68.0,67.0,29.72,SSW,202,2.0,-999.0,96,-99.99,,,-99.99,,2013-05-29 04:23:00,
2013-05-29 00:33:00,68.0,67.0,29.72,South,173,1.0,-999.0,97,-99.99,,,-99.99,,2013-05-29 04:33:00,
2013-05-29 00:42:00,68.0,67.0,29.72,South,173,1.0,-999.0,97,-99.99,,,-99.99,,2013-05-29 04:42:00,
2013-05-29 00:52:00,68.0,67.0,29.72,South,169,0.0,-999.0,97,-99.99,,,-99.99,,2013-05-29 04:52:00,
2013-05-29 01:03:00,68.0,67.0,29.71,SSW,196,4.0,-999.0,97,-99.99,,,-99.99,,2013-05-29 05:03:00,
2013-05-29 01:12:00,68.0,67.0,29.71,SSW,196,4.0,-999.0,97,-99.99,,,-99.99,,2013-05-29 05:12:00,
2013-05-29 01:22:00,68.0,67.0,29.71,South,172,2.0,-999.0,97,-99.99,,,-99.99,,2013-05-29 05:22:00,
2013-05-29 01:33:00,68.0,67.0,29.71,SSW,206,5.0,-999.0,97,-99.99,,,-99.99,,2013-05-29 05:33:00,
2013-05-29 01:42:00,68.0,67.0,29.71,SSW,206,5.0,-999.0,97,-99.99,,,-99.99,,2013-05-29 05:42:00,
2013-05-29 01:52:00,68.0,67.0,29.71,SSW,202,5.0,-999.0,97,-99.99,,,-99.99,,2013-05-29 05:52:00,
2013-05-29 02:02:00,68.0,67.0,29.71,SSW,196,4.0,-999.0,97,-99.99,,,-99.99,,2013-05-29 06:02:00,
2013-05-29 02:12:00,68.0,67.0,29.71,SSW,196,4.0,-999.0,97,-99.99,,,-99.99,,2013-05-29 06:12:00,
2013-05-29 02:21:00,68.0,67.0,29.74,SSW,209,6.0,-999.0,97,-99.99,,,-99.99,,2013-05-29 06:21:00,
2013-05-29 02:32:00,67.0,66.0,29.72,SSE,148,16.0,-999.0,96,-99.99,,,-99.99,,2013-05-29 06:32:00,
2013-05-29 02:42:00,67.0,66.0,29.72,SSE,148,16.0,-999.0,96,-99.99,,,-99.99,,2013-05-29 06:42:00,
2013-05-29 02:52:00,65.0,63.0,29.74,South,190,7.0,-999.0,94,-99.99,,,-99.99,,2013-05-29 06:52:00,
2013-05-29 03:01:00,65.0,63.0,29.72,NW,317,7.0,-999.0,92,-99.99,,,-99.99,,2013-05-29 07:01:00,
2013-05-29 03:11:00,65.0,63.0,29.72,NW,317,7.0,-999.0,92,-99.99,,,-99.99,,2013-05-29 07:11:00,
2013-05-29 03:22:00,65.0,63.0,29.72,NW,304,7.0,-999.0,92,-99.99,,,-99.99,,2013-05-29 07:22:00,
2013-05-29 03:34:00,64.0,62.0,29.71,NW,325,7.0,-999.0,92,-99.99,,,-99.99,,2013-05-29 07:34:00,
2013-05-29 03:42:00,64.0,62.0,29.71,NW,325,7.0,-999.0,92,-99.99,,,-99.99,,2013-05-29 07:42:00,
2013-05-29 03:52:00,63.0,61.0,29.70,NW,325,0.0,-999.0,93,-99.99,,,-99.99,,2013-05-29 07:52:00,
2013-05-29 04:02:00,63.0,62.0,29.70,NW,325,0.0,-999.0,95,-99.99,,,-99.99,,2013-05-29 08:02:00,
2013-05-29 04:11:00,63.0,62.0,29.70,NW,325,0.0,-999.0,95,-99.99,,,-99.99,,2013-05-29 08:11:00,
2013-05-29 04:22:00,63.0,62.0,29.72,NW,325,0.0,-999.0,96,-99.99,,,-99.99,,2013-05-29 08:22:00,
2013-05-29 04:32:00,63.0,62.0,29.72,NW,325,0.0,-999.0,97,-99.99,,,-99.99,,2013-05-29 08:32:00,
2013-05-29 04:42:00,63.0,62.0,29.72,NW,325,0.0,-999.0,97,-99.99,,,-99.99,,2013-05-29 08:42:00,
2013-05-29 04:52:00,64.0,63.0,29.72,South,190,3.0,-999.0,97,-99.99,,,-99.99,,2013-05-29 08:52:00,
2013-05-29 05:01:00,64.0,63.0,29.73,SW,222,4.0,-999.0,97,-99.99,,,-99.99,,2013-05-29 09:01:00,
2013-05-29 05:11:00,64.0,63.0,29.73,SW,222,4.0,-999.0,97,-99.99,,,-99.99,,2013-05-29 09:11:00,
2013-05-29 05:21:00,65.0,64.0,29.75,SSW,209,6.0,-999.0,96,-99.99,,,-99.99,,2013-05-29 09:21:00,
2013-05-29 05:33:00,65.0,64.0,29.76,SSW,200,8.0,-999.0,96,-99.99,,,-99.99,,2013-05-29 09:33:00,
2013-05-29 05:42:00,65.0,64.0,29.76,SSW,200,8.0,-999.0,96,-99.99,,,-99.99,,2013-05-29 09:42:00,
2013-05-29 05:52:00,66.0,64.0,29.76,South,181,5.0,-999.0,94,-99.99,,,-99.99,,2013-05-29 09:52:00,
2013-05-29 06:03:00,66.0,64.0,29.77,SW,223,5.0,-999.0,94,-99.99,,,-99.99,,2013-05-29 10:03:00,
2013-05-29 06:12:00,66.0,64.0,29.77,SW,223,5.0,-999.0,94,-99.99,,,-99.99,,2013-05-29 10:12:00,
2013-05-29 06:22:00,66.0,64.0,29.77,SW,219,6.0,-999.0,94,-99.99,,,-99.99,,2013-05-29 10:22:00,
2013-05-29 06:33:00,65.0,63.0,29.77,South,185,4.0,-999.0,93,-99.99,,,-99.99,,2013-05-29 10:33:00,
2013-05-29 06:42:00,65.0,63.0,29.77,South,185,4.0,-999.0,93,-99.99,,,-99.99,,2013-05-29 10:42:00,
2013-05-29 06:52:00,65.0,63.0,29.78,SW,224,5.0,-999.0,94,-99.99,,,-99.99,,2013-05-29 10:52:00,
2013-05-29 07:02:00,65.0,63.0,29.78,SW,218,5.0,-999.0,94,-99.99,,,-99.99,,2013-05-29 11:02:00,
2013-05-29 07:12:00,65.0,63.0,29.78,SW,218,5.0,-999.0,94,-99.99,,,-99.99,,2013-05-29 11:12:00,
2013-05-29 07:22:00,65.0,63.0,29.79,WSW,240,5.0,-999.0,94,-99.99,,,-99.99,,2013-05-29 11:22:00,
2013-05-29 07:32:00,65.0,63.0,29.78,SSW,192,4.0,-999.0,94,-99.99,,,-99.99,,2013-05-29 11:32:00,
2013-05-29 07:42:00,65.0,63.0,29.78,SSW,192,4.0,-999.0,94,-99.99,,,-99.99,,2013-05-29 11:42:00,
2013-05-29 07:52:00,64.0,62.0,29.79,SW,223,5.0,-999.0,93,-99.99,,,-99.99,,2013-05-29 11:52:00,
2013-05-29 08:01:00,64.0,62.0,29.80,SSW,201,4.0,-999.0,93,-99.99,,,-99.99,,2013-05-29 12:01:00,
2013-05-29 08:11:00,64.0,62.0,29.80,SSW,201,4.0,-999.0,93,-99.99,,,-99.99,,2013-05-29 12:11:00,
2013-05-29 08:22:00,64.0,62.0,29.79,SW,221,4.0,-999.0,93,-99.99,,,-99.99,,2013-05-29 12:22:00,
2013-05-29 08:32:00,64.0,62.0,29.79,SSW,204,4.0,-999.0,93,-99.99,,,-99.99,,2013-05-29 12:32:00,
2013-05-29 08:42:00,64.0,62.0,29.79,SSW,204,4.0,-999.0,93,-99.99,,,-99.99,,2013-05-29 12:42:00,
2013-05-29 08:52:00,64.0,62.0,29.79,SW,217,4.0,-999.0,93,-99.99,,,-99.99,,2013-05-29 12:52:00,
2013-05-29 09:02:00,64.0,62.0,29.79,SW,229,3.0,-999.0,93,-99.99,,,-99.99,,2013-05-29 13:02:00,
2013-05-29 09:11:00,64.0,62.0,29.79,SW,229,3.0,-999.0,93,-99.99,,,-99.99,,2013-05-29 13:11:00,
2013-05-29 09:22:00,64.0,62.0,29.80,SW,215,4.0,-999.0,93,-99.99,,,-99.99,,2013-05-29 13:22:00,
2013-05-29 09:32:00,65.0,63.0,29.80,South,180,6.0,-999.0,93,-99.99,,,-99.99,,2013-05-29 13:32:00,
2013-05-29 09:42:00,65.0,63.0,29.80,South,180,6.0,-999.0,93,-99.99,,,-99.99,,2013-05-29 13:42:00,
2013-05-29 09:53:00,65.0,63.0,29.81,SW,215,5.0,-999.0,92,-99.99,,,-99.99,,2013-05-29 13:53:00,
2013-05-29 10:02:00,65.0,63.0,29.82,SSW,205,6.0,-999.0,92,-99.99,,,-99.99,,2013-05-29 14:02:00,
2013-05-29 10:11:00,65.0,63.0,29.82,SSW,205,6.0,-999.0,92,-99.99,,,-99.99,,2013-05-29 14:11:00,
2013-05-29 10:21:00,65.0,63.0,29.82,SSW,211,7.0,-999.0,92,-99.99,,,-99.99,,2013-05-29 14:21:00,
2013-05-29 10:32:00,65.0,63.0,29.82,SSW,211,7.0,-999.0,92,-99.99,,,-99.99,,2013-05-29 14:32:00,
2013-05-29 10:42:00,65.0,63.0,29.82,SSW,211,7.0,-999.0,92,-99.99,,,-99.99,,2013-05-29 14:42:00,
2013-05-29 10:52:00,66.0,64.0,29.82,SSW,207,5.0,-999.0,92,-99.99,,,-99.99,,2013-05-29 14:52:00,
2013-05-29 11:01:00,67.0,64.0,29.83,SW,215,8.0,-999.0,91,-99.99,,,-99.99,,2013-05-29 15:01:00,
2013-05-29 11:11:00,67.0,64.0,29.83,SW,215,8.0,-999.0,91,-99.99,,,-99.99,,2013-05-29 15:11:00,
2013-05-29 11:21:00,67.0,64.0,29.82,West,267,6.0,-999.0,90,-99.99,,,-99.99,,2013-05-29 15:21:00,
2013-05-29 11:33:00,67.0,64.0,29.83,WSW,250,6.0,-999.0,91,-99.99,,,-99.99,,2013-05-29 15:33:00,
2013-05-29 11:42:00,67.0,64.0,29.83,WSW,250,6.0,-999.0,91,-99.99,,,-99.99,,2013-05-29 15:42:00,
2013-05-29 11:53:00,67.0,64.0,29.83,SW,229,6.0,-999.0,91,-99.99,,,-99.99,,2013-05-29 15:53:00,
2013-05-29 12:03:00,68.0,65.0,29.83,WSW,242,6.0,-999.0,89,-99.99,,,-99.99,,2013-05-29 16:03:00,
2013-05-29 12:13:00,68.0,65.0,29.83,WSW,242,6.0,-999.0,89,-99.99,,,-99.99,,2013-05-29 16:13:00,
2013-05-29 12:22:00,69.0,65.0,29.83,SW,217,6.0,-999.0,88,-99.99,,,-99.99,,2013-05-29 16:22:00,
2013-05-29 12:33:00,70.0,66.0,29.84,WSW,242,6.0,-999.0,88,-99.99,,,-99.99,,2013-05-29 16:33:00,
2013-05-29 12:42:00,70.0,66.0,29.84,WSW,242,6.0,-999.0,88,-99.99,,,-99.99,,2013-05-29 16:42:00,
2013-05-29 12:52:00,72.0,67.0,29.84,West,263,3.0,-999.0,85,-99.99,,,-99.99,,2013-05-29 16:52:00,
2013-05-29 13:02:00,72.0,67.0,29.85,SW,229,5.0,-999.0,84,-99.99,,,-99.99,,2013-05-29 17:02:00,
2013-05-29 13:12:00,72.0,67.0,29.85,SW,229,5.0,-999.0,84,-99.99,,,-99.99,,2013-05-29 17:12:00,
2013-05-29 13:22:00,73.0,68.0,29.85,WSW,247,6.0,-999.0,83,-99.99,,,-99.99,,2013-05-29 17:22:00,
2013-05-29 13:32:00,74.0,67.0,29.85,SW,234,7.0,-999.0,78,-99.99,,,-99.99,,2013-05-29 17:32:00,
2013-05-29 13:42:00,74.0,67.0,29.85,SW,234,7.0,-999.0,78,-99.99,,,-99.99,,2013-05-29 17:42:00,
2013-05-29 13:52:00,74.0,67.0,29.86,SW,221,7.0,-999.0,79,-99.99,,,-99.99,,2013-05-29 17:52:00,
2013-05-29 14:01:00,75.0,67.0,29.86,SW,232,8.0,-999.0,77,-99.99,,,-99.99,,2013-05-29 18:01:00,
2013-05-29 14:13:00,75.0,68.0,29.86,SSW,207,7.0,-999.0,79,-99.99,,,-99.99,,2013-05-29 18:13:00,
2013-05-29 14:22:00,75.0,68.0,29.86,SSW,207,7.0,-999.0,79,-99.99,,,-99.99,,2013-05-29 18:22:00,
2013-05-29 14:32:00,75.0,68.0,29.86,SW,219,6.0,-999.0,79,-99.99,,,-99.99,,2013-05-29 18:32:00,
2013-05-29 14:42:00,75.0,68.0,29.86,SW,219,6.0,-999.0,79,-99.99,,,-99.99,,2013-05-29 18:42:00,
2013-05-29 14:51:00,75.0,68.0,29.86,SW,231,8.0,-999.0,80,-99.99,,,-99.99,,2013-05-29 18:51:00,
2013-05-29 15:02:00,76.0,67.0,29.86,SSW,194,8.0,-999.0,75,-99.99,,,-99.99,,2013-05-29 19:02:00,
2013-05-29 15:11:00,78.0,69.0,29.87,SSW,211,7.0,-999.0,74,-99.99,,,-99.99,,2013-05-29 19:11:00,
2013-05-29 15:22:00,78.0,69.0,29.87,SSW,211,7.0,-999.0,74,-99.99,,,-99.99,,2013-05-29 19:22:00,
2013-05-29 15:32:00,77.0,68.0,29.87,South,180,7.0,-999.0,75,-99.99,,,-99.99,,2013-05-29 19:32:00,
2013-05-29 15:44:00,77.0,68.0,29.87,South,180,7.0,-999.0,75,-99.99,,,-99.99,,2013-05-29 19:44:00,
2013-05-29 15:53:00,78.0,69.0,29.87,SSW,205,7.0,-999.0,73,-99.99,,,-99.99,,2013-05-29 19:53:00,
2013-05-29 16:03:00,77.0,68.0,29.86,SSW,207,7.0,-999.0,74,-99.99,,,-99.99,,2013-05-29 20:03:00,
2013-05-29 16:11:00,77.0,68.0,29.86,SSW,207,7.0,-999.0,74,-99.99,,,-99.99,,2013-05-29 20:11:00,
2013-05-29 16:23:00,77.0,68.0,29.86,SW,215,7.0,-999.0,75,-99.99,,,-99.99,,2013-05-29 20:23:00,
2013-05-29 16:33:00,77.0,68.0,29.87,WSW,243,7.0,-999.0,75,-99.99,,,-99.99,,2013-05-29 20:33:00,
2013-05-29 16:42:00,77.0,68.0,29.87,WSW,243,7.0,-999.0,75,-99.99,,,-99.99,,2013-05-29 20:42:00,
2013-05-29 16:52:00,77.0,69.0,29.87,SSW,202,7.0,-999.0,76,-99.99,,,-99.99,,2013-05-29 20:52:00,
2013-05-29 17:02:00,76.0,68.0,29.87,SSW,213,8.0,-999.0,76,-99.99,,,-99.99,,2013-05-29 21:02:00,
2013-05-29 17:12:00,76.0,68.0,29.87,SSW,213,8.0,-999.0,76,-99.99,,,-99.99,,2013-05-29 21:12:00,
2013-05-29 17:22:00,76.0,68.0,29.87,WSW,237,8.0,-999.0,76,-99.99,,,-99.99,,2013-05-29 21:22:00,
2013-05-29 17:33:00,75.0,67.0,29.87,SSE,149,8.0,-999.0,77,-99.99,,,-99.99,,2013-05-29 21:33:00,
2013-05-29 17:43:00,75.0,67.0,29.87,SSE,149,8.0,-999.0,77,-99.99,,,-99.99,,2013-05-29 21:43:00,
2013-05-29 17:53:00,74.0,66.0,29.88,SW,220,7.0,-999.0,77,-99.99,,,-99.99,,2013-05-29 21:53:00,
2013-05-29 18:03:00,74.0,67.0,29.88,SSW,212,7.0,-999.0,78,-99.99,,,-99.99,,2013-05-29 22:03:00,
2013-05-29 18:12:00,74.0,67.0,29.88,SSW,212,7.0,-999.0,78,-99.99,,,-99.99,,2013-05-29 22:12:00,
2013-05-29 18:23:00,75.0,67.0,29.88,SSW,200,8.0,-999.0,77,-99.99,,,-99.99,,2013-05-29 22:23:00,
2013-05-29 18:34:00,75.0,68.0,29.88,SSW,213,9.0,-999.0,78,-99.99,,,-99.99,,2013-05-29 22:34:00,
2013-05-29 18:42:00,74.0,67.0,29.88,SW,232,8.0,-999.0,79,-99.99,,,-99.99,,2013-05-29 22:42:00,
2013-05-29 18:53:00,74.0,67.0,29.88,SW,232,8.0,-999.0,79,-99.99,,,-99.99,,2013-05-29 22:53:00,
2013-05-29 19:02:00,75.0,67.0,29.88,SW,232,5.0,-999.0,77,-99.99,,,-99.99,,2013-05-29 23:02:00,
2013-05-29 19:12:00,75.0,67.0,29.88,SW,232,5.0,-999.0,77,-99.99,,,-99.99,,2013-05-29 23:12:00,
2013-05-29 19:22:00,75.0,67.0,29.88,South,178,7.0,-999.0,76,-99.99,,,-99.99,,2013-05-29 23:22:00,
2013-05-29 19:33:00,75.0,66.0,29.88,South,191,5.0,-999.0,73,-99.99,,,-99.99,,2013-05-29 23:33:00,
2013-05-29 19:42:00,75.0,67.0,29.88,SSE,168,6.0,-999.0,75,-99.99,,,-99.99,,2013-05-29 23:42:00,
2013-05-29 19:53:00,75.0,67.0,29.88,SSE,168,6.0,-999.0,75,-99.99,,,-99.99,,2013-05-29 23:53:00,
2013-05-29 20:02:00,75.0,67.0,29.88,SE,133,3.0,-999.0,77,-99.99,,,-99.99,,2013-05-30 00:02:00,
2013-05-29 20:12:00,75.0,67.0,29.88,SE,133,3.0,-999.0,77,-99.99,,,-99.99,,2013-05-30 00:12:00,
2013-05-29 20:22:00,74.0,67.0,29.88,SW,221,4.0,-999.0,79,-99.99,,,-99.99,,2013-05-30 00:22:00,
2013-05-29 20:32:00,74.0,67.0,29.88,SSW,192,4.0,-999.0,78,-99.99,,,-99.99,,2013-05-30 00:32:00,
2013-05-29 20:42:00,74.0,67.0,29.88,SSW,192,4.0,-999.0,78,-99.99,,,-99.99,,2013-05-30 00:42:00,
2013-05-29 20:52:00,74.0,67.0,29.87,South,180,4.0,-999.0,78,-99.99,,,-99.99,,2013-05-30 00:52:00,
2013-05-29 21:02:00,73.0,66.0,29.87,SSW,205,4.0,-999.0,79,-99.99,,,-99.99,,2013-05-30 01:02:00,
2013-05-29 21:11:00,73.0,66.0,29.87,SSW,205,4.0,-999.0,79,-99.99,,,-99.99,,2013-05-30 01:11:00,
2013-05-29 21:22:00,73.0,67.0,29.87,South,191,2.0,-999.0,81,-99.99,,,-99.99,,2013-05-30 01:22:00,
2013-05-29 21:32:00,72.0,67.0,29.87,SSE,163,1.0,-999.0,83,-99.99,,,-99.99,,2013-05-30 01:32:00,
2013-05-29 21:42:00,72.0,67.0,29.87,SSE,163,1.0,-999.0,83,-99.99,,,-99.99,,2013-05-30 01:42:00,
2013-05-29 21:52:00,71.0,66.0,29.87,SSE,167,1.0,-999.0,84,-99.99,,,-99.99,,2013-05-30 01:52:00,
2013-05-29 22:02:00,71.0,66.0,29.88,South,176,0.0,-999.0,85,-99.99,,,-99.99,,2013-05-30 02:02:00,
2013-05-29 22:11:00,71.0,66.0,29.88,South,176,0.0,-999.0,85,-99.99,,,-99.99,,2013-05-30 02:11:00,
2013-05-29 22:21:00,70.0,66.0,29.88,South,178,1.0,-999.0,87,-99.99,,,-99.99,,2013-05-30 02:21:00,
2013-05-29 22:32:00,70.0,66.0,29.89,South,178,1.0,-999.0,88,-99.99,,,-99.99,,2013-05-30 02:32:00,
2013-05-29 22:42:00,70.0,66.0,29.89,South,178,1.0,-999.0,88,-99.99,,,-99.99,,2013-05-30 02:42:00,
2013-05-29 22:52:00,70.0,66.0,29.89,South,178,1.0,-999.0,88,-99.99,,,-99.99,,2013-05-30 02:52:00,
2013-05-29 23:02:00,69.0,66.0,29.90,South,183,0.0,-999.0,89,-99.99,,,-99.99,,2013-05-30 03:02:00,
2013-05-29 23:11:00,69.0,66.0,29.90,South,183,0.0,-999.0,89,-99.99,,,-99.99,,2013-05-30 03:11:00,
2013-05-29 23:21:00,69.0,66.0,29.90,South,183,0.0,-999.0,89,-99.99,,,-99.99,,2013-05-30 03:21:00,
2013-05-29 23:33:00,69.0,66.0,29.90,South,183,0.0,-999.0,90,-99.99,,,-99.99,,2013-05-30 03:33:00,
2013-05-29 23:43:00,69.0,66.0,29.90,South,183,0.0,-999.0,90,-99.99,,,-99.99,,2013-05-30 03:43:00,
2013-05-29 23:53:00,68.0,65.0,29.89,South,183,0.0,-999.0,91,-99.99,,,-99.99,,2013-05-30 03:53:00,